Regional Weather Roundup
Issued by NWS

Home | Current Version | Previous Version | Graphics & Text | Print | Product List | Glossary Off
Versions: 1 2 3 4 5 6 7 8 9 10 11 12 13 14 15 16 17 18 19 20 21 22 23 24 25 26 27 28 29 30 31 32 33 34 35 36 37 38 39 40 41 42 43 44 45 46 47 48 49 50

605
ASUS43 KLSX 190207
RWRMO

WEATHER SUMMARY FOR MISSOURI
NATIONAL WEATHER SERVICE SPRINGFIELD MO
900 PM CDT WED OCT 18 2017

NOTE: "FAIR" INDICATES FEW OR NO CLOUDS BELOW 12,000 FEET WITH NO
       SIGNIFICANT WEATHER AND/OR OBSTRUCTIONS TO VISIBILITY.
       CURRENT SKY AND/OR WEATHER CONDITIONS ARE NOT AVAILABLE FOR
       CHILLICOTHE AND FARMINGTON.

MOZ001>031-035>038-043-044-053-054-190300-
...NORTHERN AND WESTERN MISSOURI...

CITY           SKY/WX    TMP DP  RH WIND       PRES   REMARKS
KANSAS CTY INT CLEAR     56  49  77 S8        30.03S
KANSAS C DTWN  CLEAR     64  51  62 SW7       30.03R
LEE`S SUMMIT   PTCLDY    64  51  62 S8        30.05R
ST JOSEPH      CLEAR     51  51 100 CALM      30.02R
CHILLICOTHE      N/A     60  50  69 S5        30.04S
KIRKSVILLE     CLEAR     60  50  69 S7        30.04S

$$
MOZ066>068-077>081-088>096-101>105-190300-
...SOUTHWEST MISSOURI...

CITY           SKY/WX    TMP DP  RH WIND       PRES   REMARKS
SPRINGFIELD    CLEAR     62  43  49 S12       30.09R
JOPLIN         CLEAR     62  47  57 S9        30.08S
BRANSON        CLEAR     63  45  51 S7        30.13S

$$
MOZ032>034-039>042-045>050-055>058-069>072-190300-
...CENTRAL MISSOURI...

CITY           SKY/WX    TMP DP  RH WIND       PRES   REMARKS
COLUMBIA       CLOUDY    60  45  57 S6        30.07R
JEFFERSON CITY PTCLDY    65  43  44 SE6       30.05F
ROLLA          PTCLDY    64  46  52 S12       30.10S
SEDALIA        PTCLDY    64  51  62 S3        30.07R
WHITEMAN AFB   CLEAR     61  51  70 S5        30.02R
WARRENSBURG    MOCLDY    61  50  67 CALM      30.05S
OSAGE BEACH    PTCLDY    64  46  52 S6        30.08S

$$
MOZ051-052-059>065-190300-
...EAST CENTRAL MISSOURI...

CITY           SKY/WX    TMP DP  RH WIND       PRES   REMARKS
ST LOUIS INTL  PTCLDY    66  47  50 S10       30.10S
SPIRIT OF STL  PTCLDY    66  47  50 S8        30.08F
ST CHARLES     CLEAR     64  47  53 S10       30.08S

$$
MOZ072>076-082>087-097>100-106>115-190300-
...SOUTH CENTRAL AND SOUTHEAST MISSOURI...

CITY           SKY/WX    TMP DP  RH WIND       PRES   REMARKS
CAPE GIRARDEAU CLEAR     60  47  61 S8        30.17S
FARMINGTON     CLEAR     60  48  64 S7        30.15S
POPLAR BLUFF   CLEAR     60  48  64 S5        30.16S
WEST PLAINS    CLEAR     61  48  62 S6        30.15F

$$



USA.gov is the U.S. government's official web portal to all federal, state and local government web resources and services.